LIC1992 GCLP-LEXJ

Flight info

Callsign LIC1992
Flight time N/A
Altitude 36000
Route VASTO UN858 IBLIV/N0442F380 UN858 AKUDA DCT ELVAR DCT BARDI N873 RONSI M190 OBETO
Aircraft A320/M-SDE3FGHIRWY/LB1

Departure

Time N/A
Airport Gran Canaria Airport (GCLP)

Arrival

Time 2026-05-01 09:15
Airport Seve Ballesteros-Santander Airport (LEXJ)
Time Latitude Longitude Altitude Speed Heading
2026-05-01 07:23 32.63914 -11.85192 38187 ft 487 kts 30°
2026-05-01 07:24 32.72244 -11.78294 38194 ft 487 kts 29°
2026-05-01 07:24 32.77793 -11.73691 38193 ft 487 kts 29°
2026-05-01 07:25 32.83311 -11.69104 38199 ft 487 kts 30°
2026-05-01 07:25 32.88861 -11.64477 38193 ft 487 kts 29°
2026-05-01 07:26 32.94410 -11.59853 38191 ft 487 kts 29°
2026-05-01 07:26 32.99962 -11.55224 38193 ft 487 kts 29°
2026-05-01 07:27 33.05514 -11.50584 38194 ft 487 kts 29°
2026-05-01 07:27 33.11055 -11.45930 38196 ft 487 kts 30°
2026-05-01 07:28 33.15662 -11.42053 38196 ft 487 kts 30°
2026-05-01 07:28 33.21210 -11.37379 38195 ft 487 kts 30°
2026-05-01 07:29 33.26749 -11.32691 38200 ft 487 kts 30°
2026-05-01 07:29 33.32286 -11.27992 38197 ft 488 kts 30°
2026-05-01 07:30 33.37813 -11.23289 38198 ft 488 kts 30°
2026-05-01 07:30 33.43310 -11.18598 38199 ft 488 kts 30°
2026-05-01 07:31 33.48878 -11.13854 38202 ft 488 kts 30°
2026-05-01 07:32 33.62665 -11.02068 38208 ft 488 kts 30°
2026-05-01 07:33 33.70946 -10.94966 38204 ft 487 kts 30°
2026-05-01 07:33 33.79211 -10.87847 38203 ft 487 kts 30°
2026-05-01 07:34 33.87465 -10.80730 38201 ft 486 kts 30°
2026-05-01 07:35 33.92954 -10.75977 38201 ft 486 kts 30°
2026-05-01 07:35 33.98446 -10.71222 38198 ft 486 kts 30°
2026-05-01 07:36 34.03901 -10.66506 38202 ft 485 kts 30°
2026-05-01 07:36 34.09384 -10.61750 38198 ft 485 kts 30°
2026-05-01 07:37 34.17584 -10.54594 38197 ft 485 kts 30°
2026-05-01 07:37 34.23049 -10.49828 38197 ft 484 kts 30°
2026-05-01 07:38 34.28527 -10.45058 38192 ft 484 kts 30°
2026-05-01 07:39 34.36732 -10.37883 38196 ft 485 kts 30°
2026-05-01 07:39 34.44904 -10.30716 38198 ft 485 kts 30°
2026-05-01 07:40 34.50371 -10.25904 38199 ft 485 kts 30°
2026-05-01 07:40 34.55840 -10.21086 38203 ft 486 kts 30°
2026-05-01 07:41 34.61314 -10.16253 38202 ft 486 kts 30°
2026-05-01 07:42 34.69545 -10.09013 38200 ft 486 kts 30°
2026-05-01 07:42 34.74999 -10.04222 38200 ft 487 kts 29°
2026-05-01 07:43 34.80493 -9.99389 38199 ft 487 kts 29°
2026-05-01 07:43 34.88724 -9.92119 38203 ft 487 kts 30°
2026-05-01 07:44 34.99695 -9.82380 38202 ft 488 kts 29°
2026-05-01 07:45 35.05186 -9.77511 38197 ft 488 kts 29°
2026-05-01 07:45 35.10675 -9.72633 38198 ft 488 kts 30°
2026-05-01 07:46 35.16122 -9.67763 38198 ft 488 kts 29°
2026-05-01 07:47 35.24356 -9.60420 38202 ft 488 kts 29°
2026-05-01 07:47 35.29842 -9.55511 38204 ft 488 kts 29°
2026-05-01 07:48 35.38070 -9.48140 38206 ft 489 kts 29°
2026-05-01 07:48 35.43553 -9.43199 38204 ft 489 kts 29°
2026-05-01 07:49 35.51751 -9.35820 38203 ft 489 kts 29°
2026-05-01 07:50 35.57237 -9.30868 38206 ft 489 kts 29°
2026-05-01 07:50 35.65462 -9.23426 38205 ft 489 kts 29°
2026-05-01 07:51 35.69827 -9.19330 38207 ft 490 kts 30°
2026-05-01 07:52 35.78047 -9.11961 38202 ft 489 kts 28°
2026-05-01 07:52 35.82763 -9.07733 38203 ft 490 kts 29°
2026-05-01 07:53 35.90982 -9.00229 38202 ft 490 kts 29°
2026-05-01 07:53 35.96524 -8.95365 38192 ft 483 kts 21°
2026-05-01 07:55 36.11700 -8.87389 38198 ft 473 kts 13°
2026-05-01 07:56 36.26936 -8.79624 38205 ft 473 kts 13°
2026-05-01 07:57 36.36044 -8.74950 38197 ft 473 kts 13°
2026-05-01 07:58 36.48211 -8.68716 38203 ft 472 kts 13°
2026-05-01 07:59 36.60298 -8.62485 38197 ft 471 kts 13°
2026-05-01 08:00 36.78439 -8.53120 38199 ft 469 kts 14°
2026-05-01 08:01 36.90458 -8.46880 38200 ft 468 kts 14°
2026-05-01 08:02 36.99479 -8.42190 38204 ft 468 kts 14°
2026-05-01 08:03 37.08480 -8.37490 38193 ft 467 kts 14°
2026-05-01 08:03 37.17503 -8.32765 38202 ft 467 kts 14°
2026-05-01 08:04 37.27871 -8.27325 38211 ft 467 kts 14°
2026-05-01 08:05 37.36861 -8.22601 38211 ft 466 kts 14°
2026-05-01 08:06 37.45844 -8.17862 38210 ft 466 kts 15°
2026-05-01 08:07 37.57663 -8.11604 38212 ft 465 kts 15°
2026-05-01 08:08 37.66622 -8.06840 38215 ft 465 kts 15°
2026-05-01 08:09 37.78520 -8.00512 38202 ft 465 kts 15°
2026-05-01 08:09 37.84401 -7.97372 38202 ft 465 kts 15°
2026-05-01 08:10 37.96313 -7.90995 38192 ft 465 kts 16°
2026-05-01 08:11 38.08215 -7.84605 38187 ft 464 kts 17°
2026-05-01 08:12 38.16131 -7.80343 38190 ft 464 kts 17°
2026-05-01 08:13 38.25056 -7.75528 38200 ft 464 kts 17°
2026-05-01 08:13 38.33960 -7.70697 38205 ft 463 kts 17°
2026-05-01 08:14 38.39896 -7.67465 38197 ft 464 kts 17°
2026-05-01 08:14 38.45831 -7.64242 38200 ft 464 kts 17°
2026-05-01 08:15 38.54702 -7.59415 38201 ft 463 kts 18°
2026-05-01 08:16 38.60640 -7.56177 38199 ft 463 kts 18°
2026-05-01 08:16 38.66570 -7.52926 38195 ft 463 kts 18°
2026-05-01 08:17 38.72498 -7.49679 38193 ft 463 kts 18°
2026-05-01 08:17 38.78377 -7.46448 38199 ft 463 kts 18°
2026-05-01 08:18 38.84298 -7.43194 38202 ft 462 kts 18°
2026-05-01 08:19 38.96132 -7.36667 38196 ft 463 kts 19°
2026-05-01 08:19 39.02038 -7.33397 38196 ft 463 kts 19°
2026-05-01 08:20 39.07954 -7.30112 38193 ft 462 kts 19°
2026-05-01 08:20 39.13867 -7.26826 38194 ft 462 kts 19°
2026-05-01 08:21 39.19778 -7.23542 38192 ft 462 kts 19°
2026-05-01 08:21 39.25639 -7.20103 38193 ft 464 kts 22°
2026-05-01 08:22 39.31385 -7.16257 38193 ft 465 kts 24°
2026-05-01 08:22 39.37090 -7.12316 38195 ft 465 kts 24°
2026-05-01 08:23 39.42786 -7.08489 38193 ft 464 kts 23°
2026-05-01 08:23 39.48539 -7.04697 38194 ft 464 kts 23°
2026-05-01 08:24 39.54285 -7.00895 38196 ft 464 kts 24°
2026-05-01 08:24 39.60025 -6.97062 38194 ft 464 kts 24°
2026-05-01 08:25 39.65755 -6.93221 38202 ft 464 kts 24°
2026-05-01 08:25 39.71488 -6.89373 38200 ft 464 kts 24°
2026-05-01 08:26 39.77220 -6.85530 38201 ft 464 kts 24°
2026-05-01 08:26 39.82865 -6.81736 38199 ft 463 kts 24°
2026-05-01 08:27 39.88590 -6.77875 38201 ft 463 kts 24°
2026-05-01 08:27 39.94311 -6.74002 38199 ft 463 kts 24°
2026-05-01 08:28 40.00033 -6.70127 38197 ft 463 kts 25°
2026-05-01 08:28 40.05763 -6.66247 38202 ft 463 kts 25°
2026-05-01 08:29 40.11452 -6.62387 38198 ft 463 kts 25°
2026-05-01 08:29 40.17166 -6.58495 38195 ft 463 kts 25°
2026-05-01 08:30 40.22884 -6.54598 38186 ft 463 kts 25°
2026-05-01 08:30 40.28606 -6.50699 38191 ft 463 kts 25°
2026-05-01 08:31 40.34317 -6.46788 38190 ft 463 kts 25°
2026-05-01 08:31 40.40037 -6.42862 38187 ft 464 kts 25°
2026-05-01 08:32 40.45753 -6.38934 38184 ft 464 kts 25°
2026-05-01 08:32 40.51444 -6.35015 38186 ft 464 kts 25°
2026-05-01 08:33 40.57164 -6.31075 38190 ft 464 kts 25°
2026-05-01 08:33 40.62898 -6.27127 38193 ft 464 kts 26°
2026-05-01 08:34 40.68625 -6.23164 38186 ft 465 kts 26°
2026-05-01 08:34 40.74346 -6.19201 38191 ft 464 kts 26°
2026-05-01 08:35 40.80076 -6.15233 38186 ft 465 kts 26°
2026-05-01 08:35 40.85803 -6.11268 38186 ft 465 kts 26°
2026-05-01 08:36 40.91528 -6.07282 38187 ft 465 kts 26°
2026-05-01 08:36 40.97221 -6.03305 38187 ft 465 kts 26°
2026-05-01 08:37 41.02946 -5.99303 38187 ft 465 kts 26°
2026-05-01 08:37 41.07151 -5.96364 38186 ft 465 kts 26°
2026-05-01 08:38 41.13034 -5.92238 38183 ft 466 kts 26°
2026-05-01 08:38 41.18760 -5.88219 38185 ft 466 kts 26°
2026-05-01 08:39 41.24487 -5.84187 38183 ft 465 kts 26°
2026-05-01 08:39 41.30178 -5.80176 38185 ft 465 kts 26°
2026-05-01 08:40 41.38753 -5.74110 38185 ft 465 kts 26°
2026-05-01 08:40 41.44273 -5.70187 38184 ft 465 kts 26°
2026-05-01 08:41 41.49014 -5.66819 38185 ft 465 kts 26°
2026-05-01 08:41 41.53440 -5.63723 38184 ft 463 kts 21°
2026-05-01 08:42 41.59414 -5.60414 38181 ft 463 kts 21°
2026-05-01 08:42 41.65347 -5.57065 38182 ft 463 kts 21°
2026-05-01 08:43 41.71283 -5.53691 38182 ft 463 kts 21°
2026-05-01 08:43 41.77208 -5.50328 38181 ft 463 kts 21°
2026-05-01 08:44 41.83098 -5.46989 38185 ft 463 kts 21°
2026-05-01 08:44 41.89032 -5.43618 38186 ft 462 kts 21°
2026-05-01 08:45 41.94949 -5.40246 38189 ft 462 kts 21°
2026-05-01 08:45 42.00866 -5.36877 38190 ft 462 kts 21°
2026-05-01 08:46 42.06775 -5.33497 38191 ft 461 kts 21°
2026-05-01 08:46 42.12692 -5.30112 38193 ft 461 kts 21°
2026-05-01 08:47 42.18591 -5.26728 38188 ft 460 kts 21°
2026-05-01 08:47 42.24475 -5.23333 38187 ft 460 kts 21°
2026-05-01 08:48 42.30317 -5.19965 38185 ft 459 kts 21°
2026-05-01 08:48 42.36231 -5.16552 38190 ft 459 kts 21°
2026-05-01 08:49 42.42107 -5.13154 38185 ft 459 kts 21°
2026-05-01 08:49 42.47949 -5.09765 38183 ft 459 kts 21°
2026-05-01 08:50 42.53818 -5.06355 38183 ft 459 kts 21°
2026-05-01 08:50 42.56580 -5.04753 38070 ft 459 kts 21°
2026-05-01 08:50 42.59523 -5.03044 37503 ft 460 kts 21°
2026-05-01 08:51 42.62472 -5.01327 36820 ft 462 kts 21°
2026-05-01 08:51 42.65433 -4.99598 36089 ft 464 kts 21°
2026-05-01 08:51 42.68409 -4.97855 35348 ft 467 kts 21°
2026-05-01 08:51 42.71408 -4.96094 34551 ft 471 kts 21°
2026-05-01 08:52 42.74436 -4.94313 33602 ft 477 kts 21°
2026-05-01 08:52 42.77501 -4.92514 32669 ft 480 kts 21°
2026-05-01 08:52 42.80570 -4.90716 31898 ft 480 kts 21°
2026-05-01 08:52 42.83579 -4.88952 31384 ft 474 kts 21°
2026-05-01 08:53 42.86595 -4.87182 30782 ft 470 kts 21°
2026-05-01 08:53 42.89602 -4.85415 30183 ft 467 kts 21°
2026-05-01 08:53 42.92574 -4.83667 29532 ft 463 kts 21°
2026-05-01 08:53 42.95512 -4.81933 28951 ft 457 kts 22°
2026-05-01 08:54 42.98414 -4.80217 28377 ft 452 kts 22°
2026-05-01 08:54 43.01286 -4.78517 27796 ft 447 kts 22°
2026-05-01 08:54 43.04119 -4.76835 27240 ft 443 kts 22°
2026-05-01 08:54 43.06935 -4.75162 26670 ft 438 kts 22°
2026-05-01 08:55 43.09722 -4.73507 26129 ft 435 kts 22°
2026-05-01 08:55 43.11550 -4.72421 25784 ft 432 kts 22°
2026-05-01 08:55 43.14294 -4.70791 25260 ft 428 kts 23°
2026-05-01 08:55 43.17014 -4.69175 24758 ft 424 kts 23°
2026-05-01 08:56 43.19712 -4.67570 24258 ft 422 kts 23°
2026-05-01 08:56 43.22398 -4.65972 23787 ft 418 kts 23°
2026-05-01 08:56 43.25063 -4.64386 23262 ft 415 kts 23°
2026-05-01 08:56 43.27697 -4.62818 22790 ft 410 kts 23°
2026-05-01 08:57 43.30306 -4.61263 22332 ft 406 kts 23°
2026-05-01 08:57 43.32883 -4.59724 21839 ft 403 kts 24°
2026-05-01 08:57 43.35448 -4.58186 21368 ft 399 kts 23°
2026-05-01 08:57 43.37976 -4.56662 20869 ft 396 kts 24°
2026-05-01 08:58 43.40492 -4.55146 20373 ft 393 kts 24°
2026-05-01 08:58 43.42965 -4.53553 19865 ft 390 kts 31°
2026-05-01 08:58 43.45087 -4.51273 19360 ft 386 kts 47°
2026-05-01 08:58 43.46686 -4.48338 18856 ft 382 kts 62°
2026-05-01 08:59 43.47676 -4.44966 18275 ft 379 kts 77°
2026-05-01 08:59 43.47998 -4.41448 17715 ft 373 kts 92°
2026-05-01 08:59 43.47852 -4.37901 17177 ft 370 kts 96°
2026-05-01 08:59 43.47680 -4.34381 16626 ft 368 kts 96°
2026-05-01 09:00 43.47501 -4.30883 16097 ft 365 kts 96°
2026-05-01 09:00 43.47302 -4.27415 15593 ft 362 kts 96°
2026-05-01 09:00 43.47089 -4.23965 15083 ft 359 kts 97°
2026-05-01 09:00 43.46873 -4.20554 14582 ft 357 kts 97°
2026-05-01 09:01 43.46659 -4.17156 14077 ft 355 kts 97°
2026-05-01 09:01 43.46451 -4.13785 13532 ft 353 kts 97°
2026-05-01 09:01 43.46242 -4.10439 13028 ft 349 kts 97°
2026-05-01 09:01 43.46035 -4.07124 12530 ft 346 kts 97°
2026-05-01 09:02 43.45833 -4.03855 12196 ft 338 kts 97°
2026-05-01 09:02 43.45641 -4.00696 12051 ft 323 kts 97°
2026-05-01 09:02 43.45459 -3.97696 11925 ft 305 kts 97°
2026-05-01 09:02 43.45286 -3.94878 11797 ft 287 kts 97°
2026-05-01 09:03 43.45120 -3.92220 11648 ft 273 kts 97°
2026-05-01 09:03 43.44948 -3.89644 11483 ft 267 kts 99°
2026-05-01 09:03 43.44710 -3.87126 11186 ft 267 kts 101°
2026-05-01 09:03 43.44435 -3.84624 10980 ft 263 kts 101°
2026-05-01 09:04 43.44151 -3.82141 10575 ft 261 kts 102°
2026-05-01 09:04 43.43866 -3.79678 10168 ft 260 kts 101°
2026-05-01 09:04 43.43587 -3.77224 9744 ft 258 kts 101°
2026-05-01 09:04 43.43320 -3.74820 9321 ft 256 kts 101°
2026-05-01 09:05 43.43053 -3.72403 8889 ft 255 kts 101°
2026-05-01 09:05 43.42789 -3.70005 8495 ft 252 kts 101°
2026-05-01 09:05 43.42528 -3.67624 8045 ft 252 kts 101°
2026-05-01 09:05 43.42266 -3.65241 7647 ft 249 kts 101°
2026-05-01 09:06 43.42007 -3.62888 7198 ft 249 kts 101°
2026-05-01 09:06 43.41749 -3.60539 6780 ft 248 kts 100°
2026-05-01 09:06 43.41493 -3.58207 6384 ft 246 kts 100°
2026-05-01 09:06 43.41238 -3.55885 5948 ft 244 kts 101°
2026-05-01 09:07 43.40983 -3.53583 5510 ft 242 kts 101°
2026-05-01 09:07 43.40729 -3.51308 5191 ft 236 kts 101°
2026-05-01 09:07 43.40490 -3.49156 4961 ft 227 kts 101°
2026-05-01 09:07 43.40249 -3.47032 4625 ft 222 kts 103°
2026-05-01 09:08 43.39652 -3.45119 4508 ft 219 kts 130°
2026-05-01 09:08 43.38507 -3.43798 4427 ft 215 kts 155°
2026-05-01 09:08 43.37060 -3.43335 4369 ft 215 kts 181°
2026-05-01 09:08 43.35615 -3.43824 4312 ft 216 kts 207°
2026-05-01 09:09 43.34481 -3.45170 4255 ft 218 kts 233°
2026-05-01 09:09 43.33907 -3.47098 4186 ft 222 kts 261°
2026-05-01 09:09 43.34047 -3.49210 4132 ft 226 kts 288°
2026-05-01 09:09 43.34595 -3.51247 3993 ft 227 kts 284°
2026-05-01 09:10 43.35033 -3.53320 3812 ft 225 kts 286°
2026-05-01 09:10 43.35535 -3.55323 3634 ft 217 kts 288°
2026-05-01 09:10 43.36044 -3.57219 3538 ft 205 kts 288°
2026-05-01 09:10 43.36532 -3.59020 3295 ft 197 kts 288°
2026-05-01 09:11 43.37004 -3.60771 3051 ft 194 kts 289°
2026-05-01 09:11 43.37470 -3.62498 2793 ft 190 kts 289°
2026-05-01 09:11 43.37921 -3.64173 2538 ft 184 kts 290°
2026-05-01 09:11 43.38358 -3.65794 2320 ft 182 kts 290°
2026-05-01 09:12 43.38798 -3.67430 2060 ft 183 kts 291°
2026-05-01 09:12 43.39236 -3.69057 1813 ft 179 kts 291°
2026-05-01 09:12 43.39660 -3.70634 1583 ft 173 kts 291°
2026-05-01 09:12 43.40073 -3.72173 1340 ft 166 kts 291°
2026-05-01 09:13 43.40456 -3.73598 1131 ft 152 kts 292°
2026-05-01 09:13 43.40806 -3.74925 940 ft 144 kts 291°
2026-05-01 09:13 43.41151 -3.76208 709 ft 142 kts 293°
2026-05-01 09:13 43.41492 -3.77462 536 ft 140 kts 290°
2026-05-01 09:14 43.41819 -3.78713 347 ft 138 kts 292°
2026-05-01 09:14 43.42156 -3.79946 147 ft 137 kts 292°
2026-05-01 09:14 43.42485 -3.81172 28 ft 131 kts 292°
2026-05-01 09:14 43.42722 -3.82058 20 ft 57 kts 290°
2026-05-01 09:15 43.42836 -3.82485 21 ft 46 kts 290°
2026-05-01 09:15 43.42931 -3.82848 19 ft 25 kts 290°
2026-05-01 09:15 43.42918 -3.83000 22 ft 14 kts 235°
2026-05-01 09:15 43.42828 -3.83023 19 ft 15 kts 150°
2026-05-01 09:16 43.42778 -3.82905 19 ft 16 kts 110°
2026-05-01 09:16 43.42738 -3.82748 20 ft 19 kts 110°
2026-05-01 09:16 43.42689 -3.82566 20 ft 17 kts 109°
2026-05-01 09:17 43.42651 -3.82428 19 ft 9 kts 110°
2026-05-01 09:17 43.42626 -3.82333 20 ft 11 kts 111°
2026-05-01 09:17 43.42493 -3.82345 20 ft 12 kts 201°
2026-05-01 09:18 43.42441 -3.82358 19 ft 7 kts 168°
2026-05-01 09:18 43.42404 -3.82354 19 ft 2 kts 213°
2026-05-01 09:19 43.42399 -3.82366 19 ft 0 kts 236°